Iowa City, IA

7:11 AM CST on December 13, 2019 (GMT -0600)
Iowa City Municipal

Weather History for KIOW - October, 2019

Change the Weather History Date:

Sunday, October 20, 2019

  Actual Average Record
Temperature  
Mean Temperature 51 °F 50 °F  
Max Temperature 63 °F 61 °F 85 °F (1953)
Min Temperature 39 °F 40 °F 23 °F (1952)
Degree Days  
Heating Degree Days 14 15  
Month to date heating degree days 236 229  
Since 1 July heating degree days 243 341  
Cooling Degree Days 0 0  
Month to date cooling degree days 18 10  
Year to date cooling degree days 1175 912  
Growing Degree Days 1 (Base 50)    
Moisture  
Dew Point 44 °F    
Average Humidity 74    
Maximum Humidity 96    
Minimum Humidity 51    
Precipitation  
Precipitation 0.00 in 0.09 in 1.69 in (2015)
Month to date precipitation 1.66 1.82  
Year to date precipitation 38.63 31.36  
Sea Level Pressure  
Sea Level Pressure 29.87 in    
Wind  
Wind Speed 5 mph (ESE)    
Max Wind Speed 13 mph    
Max Gust Speed 18 mph    
Visibility 5 miles    
Events Fog    
T = Trace of Precipitation, MM = Missing Value Source: NWS Daily Summary

Daily Weather History Graph

Daily Weather History Graph

Search for Another Location

Airport or City:

Astronomy

Oct. 20, 2019 Rise Set
Actual Time 7:23 AM CDT 6:17 PM CDT
Civil Twilight 6:55 AM CDT 6:45 PM CDT
Nautical Twilight 6:23 AM CDT 7:18 PM CDT
Astronomical Twilight 5:51 AM CDT 7:50 PM CDT
Moon 11:23 PM CDT (10/20) 1:55 PM CDT (10/20)
Length of Visible Light 11h 50m
Length of Day
10h 53m
Waning Gibbous, 59% of the Moon is Illuminated
Oct 20
Waning Gibbous
Oct 21
Last Quarter
Oct 27
New
Nov 4
First Quarter
Nov 12
Full

Hourly Weather History & Observations

Time (CDT) Temp. Windchill Dew Point Humidity Pressure Visibility Wind Dir Wind Speed Gust Speed Precip Events Conditions
12:52 AM 41.0 °F - 39.9 °F 96% 29.83 in 0.5 mi Calm Calm - N/A Fog Fog
1:52 AM 42.1 °F - 39.9 °F 92% 29.84 in 0.2 mi Calm Calm - N/A Fog Fog
2:52 AM 41.0 °F - 39.0 °F 93% 29.85 in 0.2 mi Calm Calm - N/A Fog Fog
3:52 AM 41.0 °F - 39.0 °F 93% 29.85 in 0.2 mi Calm Calm - N/A Fog Fog
4:52 AM 41.0 °F - 39.0 °F 93% 29.86 in 0.2 mi Calm Calm - N/A Fog Fog
5:52 AM 41.0 °F - 39.0 °F 93% 29.88 in 0.2 mi Calm Calm - N/A Fog Fog
6:52 AM 39.0 °F - 37.9 °F 96% 29.90 in 0.2 mi Calm Calm - N/A Fog Fog
7:52 AM 39.9 °F - 37.9 °F 93% 29.91 in 0.2 mi Calm Calm - N/A Fog Fog
8:52 AM 41.0 °F - 39.9 °F 96% 29.93 in 0.2 mi Calm Calm - N/A Fog Fog
9:52 AM 43.0 °F 39.5 °F 41.0 °F 93% 29.94 in 0.2 mi East 5.8 mph - N/A Fog Fog
10:52 AM 48.0 °F - 46.0 °F 93% 29.94 in 0.2 mi SE 4.6 mph - N/A Fog Fog
11:24 AM 50.0 °F - 48.0 °F 93% 29.93 in 1.2 mi SSE 5.8 mph - N/A   Overcast
11:32 AM 50.0 °F - 48.9 °F 96% 29.93 in 3.0 mi SE 4.6 mph - N/A   Overcast
11:52 AM 51.1 °F - 48.9 °F 92% 29.94 in 9.0 mi Calm Calm - N/A   Overcast
12:08 PM 54.0 °F - 50.0 °F 86% 29.93 in 10.0 mi SSE 5.8 mph - N/A   Scattered Clouds
12:52 PM 60.1 °F - 52.0 °F 75% 29.92 in 10.0 mi SE 9.2 mph - N/A   Clear
1:52 PM 59.0 °F - 50.0 °F 72% 29.91 in 10.0 mi SSE 8.1 mph - N/A   Clear
2:52 PM 62.1 °F - 50.0 °F 65% 29.88 in 10.0 mi ESE 9.2 mph - N/A   Clear
3:52 PM 62.1 °F - 48.0 °F 60% 29.87 in 10.0 mi East 8.1 mph - N/A   Clear
4:52 PM 63.0 °F - 48.9 °F 60% 29.84 in 10.0 mi East 5.8 mph - N/A   Clear
5:52 PM 63.0 °F - 46.9 °F 56% 29.83 in 10.0 mi East 6.9 mph - N/A   Clear
6:52 PM 60.1 °F - 46.0 °F 60% 29.83 in 10.0 mi East 6.9 mph - N/A   Clear
7:52 PM 59.0 °F - 43.0 °F 55% 29.83 in 10.0 mi East 8.1 mph - N/A   Clear
8:52 PM 57.9 °F - 39.9 °F 51% 29.81 in 10.0 mi East 6.9 mph - N/A   Clear
9:52 PM 57.0 °F - 41.0 °F 55% 29.81 in 10.0 mi East 10.4 mph - N/A   Clear
10:52 PM 55.9 °F - 45.0 °F 67% 29.79 in 10.0 mi SE 10.4 mph - N/A   Mostly Cloudy
11:52 PM 55.9 °F - 46.9 °F 72% 29.74 in 10.0 mi ESE 6.9 mph - N/A   Mostly Cloudy